Hyannis, MA

1:27 AM EST on February 26, 2017 (GMT -0500)
Barnstable Municipal-Boardman-Polando Field

Weather History for KHYA - August, 2014

Change the Weather History Date:

Monday, August 18, 2014

  Actual Average Record
Temperature  
Mean Temperature 68 °F -  
Max Temperature 75 °F 79 °F 88 °F (1956)
Min Temperature 57 °F 63 °F 42 °F (1961)
Cooling Degree Days 2    
Growing Degree Days 18 (Base 50)    
Moisture  
Dew Point 55 °F    
Average Humidity 67    
Maximum Humidity 90    
Minimum Humidity 46    
Precipitation  
Precipitation 0.00 in - - ()
Sea Level Pressure  
Sea Level Pressure 29.81 in    
Wind  
Wind Speed 6 mph (NNW)    
Max Wind Speed 14 mph    
Max Gust Speed 21 mph    
Visibility 10 miles    
Events      
Averages and records for this station are not official NWS values.
T = Trace of Precipitation, MM = Missing Value Source: NWS Daily Summary

Daily Weather History Graph

Daily Weather History Graph

Search for Another Location

Airport or City:

Trip Planner

Search our weather history database for the weather conditions in past years. The results will help you decide how hot, cold, wet, or windy it might be!

Date:

Astronomy

Aug. 18, 2014 Rise Set
Actual Time 5:52 AM EDT 7:36 PM EDT
Civil Twilight 5:23 AM EDT 8:06 PM EDT
Nautical Twilight 4:47 AM EDT 8:41 PM EDT
Astronomical Twilight 4:08 AM EDT 9:20 PM EDT
Moon No Moon Rise 2:38 PM EDT (8/18)
Length of Visible Light 14h 43m
Length of Day
13h 43m
Last Quarter, 38% of the Moon is Illuminated
Aug 18
Last Quarter
Aug 25
New
Sep 2
First Quarter
Sep 8
Full
Sep 15
Last Quarter

Hourly Weather History & Observations

Time (EDT) Temp. Dew Point Humidity Pressure Visibility Wind Dir Wind Speed Gust Speed Precip Events Conditions
12:56 AM 64.0 °F 55.0 °F 73% 29.81 in 10.0 mi NW 3.5 mph - N/A   Clear
1:56 AM 61.0 °F 55.0 °F 81% 29.80 in 10.0 mi WNW 3.5 mph - N/A   Clear
2:56 AM 61.0 °F 54.0 °F 78% 29.78 in 10.0 mi West 3.5 mph - N/A   Clear
3:56 AM 60.1 °F 54.0 °F 80% 29.78 in 10.0 mi West 3.5 mph - N/A   Clear
4:56 AM 61.0 °F 54.0 °F 78% 29.79 in 10.0 mi West 5.8 mph - N/A   Clear
5:56 AM 61.0 °F 54.0 °F 78% 29.80 in 10.0 mi NW 5.8 mph - N/A   Clear
6:56 AM 63.0 °F 55.0 °F 75% 29.81 in 10.0 mi NW 6.9 mph - N/A   Clear
7:56 AM 64.9 °F 55.0 °F 70% 29.81 in 10.0 mi NW 6.9 mph - N/A   Clear
8:56 AM 68.0 °F 54.0 °F 61% 29.81 in 10.0 mi NNW 10.4 mph 20.7 mph N/A   Clear
9:56 AM 71.1 °F 55.0 °F 57% 29.81 in 10.0 mi NNW 13.8 mph 19.6 mph N/A   Partly Cloudy
10:56 AM 72.0 °F 55.9 °F 57% 29.81 in 10.0 mi NNW 12.7 mph 19.6 mph N/A   Clear
11:56 AM 73.0 °F 52.0 °F 48% 29.81 in 10.0 mi NNW 10.4 mph 19.6 mph N/A   Clear
12:56 PM 73.0 °F 54.0 °F 51% 29.80 in 10.0 mi NNW 8.1 mph - N/A   Partly Cloudy
1:56 PM 75.0 °F 54.0 °F 48% 29.79 in 10.0 mi North 10.4 mph - N/A   Scattered Clouds
2:56 PM 73.9 °F 53.1 °F 48% 29.79 in 10.0 mi North 8.1 mph - N/A   Scattered Clouds
3:56 PM 75.0 °F 53.1 °F 46% 29.79 in 10.0 mi NE 5.8 mph - N/A   Clear
4:56 PM 73.0 °F 53.1 °F 49% 29.80 in 10.0 mi NE 5.8 mph - N/A   Mostly Cloudy
5:56 PM 70.0 °F 57.9 °F 65% 29.81 in 10.0 mi Variable 4.6 mph - N/A   Partly Cloudy
6:56 PM 69.1 °F 59.0 °F 70% 29.82 in 10.0 mi SE 5.8 mph - N/A   Scattered Clouds
7:56 PM 66.0 °F 59.0 °F 78% 29.83 in 10.0 mi NE 3.5 mph - N/A   Clear
8:56 PM 63.0 °F 57.9 °F 84% 29.85 in 10.0 mi Calm Calm - N/A   Clear
9:56 PM 61.0 °F 57.0 °F 87% 29.86 in 10.0 mi Calm Calm - N/A   Clear
10:56 PM 57.9 °F 55.0 °F 90% 29.86 in 10.0 mi Calm Calm - N/A   Clear